Time,TemperatureF,DewpointF,PressureIn,WindDirection,WindDirectionDegrees,WindSpeedMPH,WindSpeedGustMPH,Humidity,HourlyPrecipIn,Conditions,Clouds,dailyrainin,SoftwareType,DateUTC
2013-05-26 00:01:00,46.6,14.4,29.94,WSW,251,0.0,0.0,27,0.00,,,0.00,VWS V14.01,2013-05-26 07:01:00,
2013-05-26 00:07:00,46.2,14.9,29.94,WSW,251,0.0,0.0,28,0.00,,,0.00,VWS V14.01,2013-05-26 07:07:00,
2013-05-26 00:12:00,46.2,14.9,29.94,WSW,251,0.0,0.0,28,0.00,,,0.00,VWS V14.01,2013-05-26 07:12:00,
2013-05-26 00:17:00,46.2,14.9,29.94,WSW,251,0.0,0.0,28,0.00,,,0.00,VWS V14.01,2013-05-26 07:17:00,
2013-05-26 00:22:00,46.2,14.9,29.94,WSW,251,0.0,0.0,28,0.00,,,0.00,VWS V14.01,2013-05-26 07:22:00,
2013-05-26 00:27:00,46.0,14.8,29.94,WSW,251,0.0,0.0,28,0.00,,,0.00,VWS V14.01,2013-05-26 07:27:00,
2013-05-26 00:33:00,45.9,14.6,29.94,WSW,256,0.0,0.0,28,0.00,,,0.00,VWS V14.01,2013-05-26 07:33:00,
2013-05-26 00:39:00,45.7,14.5,29.94,WSW,258,0.0,0.0,28,0.00,,,0.00,VWS V14.01,2013-05-26 07:39:00,
2013-05-26 00:45:00,45.3,14.1,29.94,West,261,0.0,0.0,28,0.00,,,0.00,VWS V14.01,2013-05-26 07:45:00,
2013-05-26 00:51:00,45.1,14.0,29.94,West,267,0.0,0.0,28,0.00,,,0.00,VWS V14.01,2013-05-26 07:51:00,
2013-05-26 00:56:00,44.8,13.7,29.94,West,268,0.0,0.0,28,0.00,,,0.00,VWS V14.01,2013-05-26 07:56:00,
2013-05-26 01:02:00,44.8,13.7,29.94,West,270,0.0,0.0,28,0.00,,,0.00,VWS V14.01,2013-05-26 08:02:00,
2013-05-26 01:07:00,44.6,13.5,29.94,West,271,0.0,0.0,28,0.00,,,0.00,VWS V14.01,2013-05-26 08:07:00,
2013-05-26 01:12:00,44.6,13.5,29.94,West,271,0.0,0.0,28,0.00,,,0.00,VWS V14.01,2013-05-26 08:12:00,
2013-05-26 01:18:00,44.2,13.2,29.94,West,271,0.0,0.0,28,0.00,,,0.00,VWS V14.01,2013-05-26 08:18:00,
2013-05-26 01:23:00,44.1,13.1,29.94,West,272,0.0,0.0,28,0.00,,,0.00,VWS V14.01,2013-05-26 08:23:00,
2013-05-26 01:28:00,43.9,12.9,29.94,West,272,0.0,0.0,28,0.00,,,0.00,VWS V14.01,2013-05-26 08:28:00,
2013-05-26 01:33:00,43.7,12.8,29.94,West,272,0.0,0.0,28,0.00,,,0.00,VWS V14.01,2013-05-26 08:33:00,
2013-05-26 01:38:00,43.5,12.6,29.94,West,272,0.0,0.0,28,0.00,,,0.00,VWS V14.01,2013-05-26 08:38:00,
2013-05-26 01:44:00,43.3,12.4,29.94,West,273,0.0,0.0,28,0.00,,,0.00,VWS V14.01,2013-05-26 08:44:00,
2013-05-26 01:50:00,43.2,12.3,29.94,West,273,0.0,0.0,28,0.00,,,0.00,VWS V14.01,2013-05-26 08:50:00,
2013-05-26 01:55:00,43.0,12.1,29.94,West,273,0.0,0.0,28,0.00,,,0.00,VWS V14.01,2013-05-26 08:55:00,
2013-05-26 02:01:00,42.8,12.0,29.94,West,273,0.0,0.0,28,0.00,,,0.00,VWS V14.01,2013-05-26 09:01:00,
2013-05-26 02:08:00,42.8,12.0,29.94,West,273,0.0,0.0,28,0.00,,,0.00,VWS V14.01,2013-05-26 09:08:00,
2013-05-26 02:13:00,42.6,12.6,29.94,West,273,0.0,0.0,29,0.00,,,0.00,VWS V14.01,2013-05-26 09:13:00,
2013-05-26 02:18:00,42.6,12.6,29.94,West,273,0.0,0.0,29,0.00,,,0.00,VWS V14.01,2013-05-26 09:18:00,
2013-05-26 02:23:00,42.6,12.6,29.94,West,273,0.0,0.0,29,0.00,,,0.00,VWS V14.01,2013-05-26 09:23:00,
2013-05-26 02:28:00,42.8,12.0,29.94,West,273,0.0,0.0,28,0.00,,,0.00,VWS V14.01,2013-05-26 09:28:00,
2013-05-26 02:34:00,42.8,12.0,29.94,West,273,0.0,0.0,28,0.00,,,0.00,VWS V14.01,2013-05-26 09:34:00,
2013-05-26 02:40:00,43.0,12.1,29.94,West,273,0.0,0.0,28,0.00,,,0.00,VWS V14.01,2013-05-26 09:40:00,
2013-05-26 02:45:00,43.0,12.1,29.94,West,273,0.0,0.0,28,0.00,,,0.00,VWS V14.01,2013-05-26 09:45:00,
2013-05-26 02:50:00,43.0,12.1,29.94,West,273,0.0,0.0,28,0.00,,,0.00,VWS V14.01,2013-05-26 09:50:00,
2013-05-26 02:55:00,43.2,12.3,29.94,West,273,0.0,0.0,28,0.00,,,0.00,VWS V14.01,2013-05-26 09:55:00,
2013-05-26 03:01:00,43.2,12.3,29.94,West,273,0.0,0.0,28,0.00,,,0.00,VWS V14.01,2013-05-26 10:01:00,
2013-05-26 03:06:00,43.2,12.3,29.94,West,273,0.0,0.0,28,0.00,,,0.00,VWS V14.01,2013-05-26 10:06:00,
2013-05-26 03:11:00,43.2,12.3,29.94,West,273,0.0,0.0,28,0.00,,,0.00,VWS V14.01,2013-05-26 10:11:00,
2013-05-26 03:16:00,43.2,12.3,29.94,West,273,0.0,0.0,28,0.00,,,0.00,VWS V14.01,2013-05-26 10:16:00,
2013-05-26 03:21:00,43.2,12.3,29.94,West,273,0.0,0.0,28,0.00,,,0.00,VWS V14.01,2013-05-26 10:21:00,
2013-05-26 03:27:00,43.0,12.1,29.94,West,273,0.0,0.0,28,0.00,,,0.00,VWS V14.01,2013-05-26 10:27:00,
2013-05-26 03:32:00,43.2,12.3,29.94,West,273,0.0,0.0,28,0.00,,,0.00,VWS V14.01,2013-05-26 10:32:00,
2013-05-26 03:37:00,43.2,12.3,29.94,West,273,0.0,0.0,28,0.00,,,0.00,VWS V14.01,2013-05-26 10:37:00,
2013-05-26 03:43:00,43.0,12.1,29.94,West,273,0.0,0.0,28,0.00,,,0.00,VWS V14.01,2013-05-26 10:43:00,
2013-05-26 03:48:00,43.2,12.3,29.94,West,273,0.0,0.0,28,0.00,,,0.00,VWS V14.01,2013-05-26 10:48:00,
2013-05-26 03:53:00,43.0,12.1,29.91,West,273,0.0,0.0,28,0.00,,,0.00,VWS V14.01,2013-05-26 10:53:00,
2013-05-26 03:58:00,43.0,12.1,29.91,West,273,0.0,0.0,28,0.00,,,0.00,VWS V14.01,2013-05-26 10:58:00,
2013-05-26 04:04:00,43.0,12.1,29.91,West,273,0.0,0.0,28,0.00,,,0.00,VWS V14.01,2013-05-26 11:04:00,
2013-05-26 04:10:00,43.0,12.1,29.91,West,273,0.0,0.0,28,0.00,,,0.00,VWS V14.01,2013-05-26 11:10:00,
2013-05-26 04:15:00,43.2,12.3,29.91,West,273,0.0,0.0,28,0.00,,,0.00,VWS V14.01,2013-05-26 11:15:00,
2013-05-26 04:22:00,43.2,12.3,29.91,West,273,0.0,0.0,28,0.00,,,0.00,VWS V14.01,2013-05-26 11:22:00,
2013-05-26 04:27:00,43.2,12.3,29.91,West,273,0.0,0.0,28,0.00,,,0.00,VWS V14.01,2013-05-26 11:27:00,
2013-05-26 04:33:00,43.2,12.3,29.91,West,273,0.0,0.0,28,0.00,,,0.00,VWS V14.01,2013-05-26 11:33:00,
2013-05-26 04:40:00,43.2,12.3,29.91,West,273,0.0,0.0,28,0.00,,,0.00,VWS V14.01,2013-05-26 11:40:00,
2013-05-26 04:46:00,43.2,12.3,29.91,West,273,0.0,0.0,28,0.00,,,0.00,VWS V14.01,2013-05-26 11:46:00,
2013-05-26 04:51:00,43.2,12.3,29.91,West,273,0.0,0.0,28,0.00,,,0.00,VWS V14.01,2013-05-26 11:51:00,
2013-05-26 04:56:00,43.2,12.3,29.91,West,273,0.0,0.0,28,0.00,,,0.00,VWS V14.01,2013-05-26 11:56:00,
2013-05-26 05:02:00,43.2,12.3,29.91,West,273,0.0,0.0,28,0.00,,,0.00,VWS V14.01,2013-05-26 12:02:00,
2013-05-26 05:07:00,43.2,12.3,29.94,West,273,0.0,0.0,28,0.00,,,0.00,VWS V14.01,2013-05-26 12:07:00,
2013-05-26 05:12:00,43.2,12.3,29.94,West,273,0.0,0.0,28,0.00,,,0.00,VWS V14.01,2013-05-26 12:12:00,
2013-05-26 05:18:00,43.2,12.3,29.94,West,273,0.0,0.0,28,0.00,,,0.00,VWS V14.01,2013-05-26 12:18:00,
2013-05-26 05:23:00,43.2,12.3,29.94,West,273,0.0,0.0,28,0.00,,,0.00,VWS V14.01,2013-05-26 12:23:00,
2013-05-26 05:28:00,43.2,12.3,29.94,West,273,0.0,0.0,28,0.00,,,0.00,VWS V14.01,2013-05-26 12:28:00,
2013-05-26 05:33:00,43.2,12.3,29.94,West,273,0.0,0.0,28,0.00,,,0.00,VWS V14.01,2013-05-26 12:33:00,
2013-05-26 05:38:00,43.2,12.3,29.94,West,273,0.0,0.0,28,0.00,,,0.00,VWS V14.01,2013-05-26 12:38:00,
2013-05-26 05:44:00,43.0,12.1,29.94,West,273,0.0,0.0,28,0.00,,,0.00,VWS V14.01,2013-05-26 12:44:00,
2013-05-26 05:49:00,42.8,12.0,29.94,West,273,0.0,0.0,28,0.00,,,0.00,VWS V14.01,2013-05-26 12:49:00,
2013-05-26 05:54:00,42.8,12.0,29.91,West,273,0.0,0.0,28,0.00,,,0.00,VWS V14.01,2013-05-26 12:54:00,
2013-05-26 05:59:00,42.8,12.0,29.91,West,273,0.0,0.0,28,0.00,,,0.00,VWS V14.01,2013-05-26 12:59:00,
2013-05-26 06:04:00,43.0,12.1,29.91,West,273,0.0,0.0,28,0.00,,,0.00,VWS V14.01,2013-05-26 13:04:00,
2013-05-26 06:11:00,42.8,12.0,29.94,West,273,0.0,0.0,28,0.00,,,0.00,VWS V14.01,2013-05-26 13:11:00,
2013-05-26 06:16:00,42.8,12.0,29.94,West,273,0.0,0.0,28,0.00,,,0.00,VWS V14.01,2013-05-26 13:16:00,
2013-05-26 06:21:00,43.0,12.1,29.94,West,273,0.0,0.0,28,0.00,,,0.00,VWS V14.01,2013-05-26 13:21:00,
2013-05-26 06:27:00,42.8,12.0,29.94,West,273,0.0,0.0,28,0.00,,,0.00,VWS V14.01,2013-05-26 13:27:00,
2013-05-26 06:32:00,42.8,12.0,29.94,West,273,0.0,0.0,28,0.00,,,0.00,VWS V14.01,2013-05-26 13:32:00,
2013-05-26 06:38:00,42.8,12.0,29.94,West,273,0.0,0.0,28,0.00,,,0.00,VWS V14.01,2013-05-26 13:38:00,
2013-05-26 06:43:00,43.2,12.3,29.94,SSW,199,4.0,4.0,28,0.00,,,0.00,VWS V14.01,2013-05-26 13:43:00,
2013-05-26 06:49:00,42.8,12.0,29.94,SSW,199,4.0,4.0,28,0.00,,,0.00,VWS V14.01,2013-05-26 13:49:00,
2013-05-26 06:54:00,43.0,12.1,29.94,SSW,199,0.0,0.0,28,0.00,,,0.00,VWS V14.01,2013-05-26 13:54:00,
2013-05-26 07:00:00,43.0,12.1,29.94,SSW,199,0.0,0.0,28,0.00,,,0.00,VWS V14.01,2013-05-26 14:00:00,
2013-05-26 07:05:00,42.8,12.0,29.94,SSW,199,0.0,0.0,28,0.00,,,0.00,VWS V14.01,2013-05-26 14:05:00,
2013-05-26 07:12:00,42.8,12.0,29.94,SSW,199,0.0,0.0,28,0.00,,,0.00,VWS V14.01,2013-05-26 14:12:00,
2013-05-26 07:17:00,43.2,12.3,29.94,SSW,199,0.0,0.0,28,0.00,,,0.00,VWS V14.01,2013-05-26 14:17:00,
2013-05-26 07:22:00,43.2,12.3,29.94,SSW,199,0.0,0.0,28,0.00,,,0.00,VWS V14.01,2013-05-26 14:22:00,
2013-05-26 07:27:00,43.3,12.4,29.94,SSW,199,0.0,0.0,28,0.00,,,0.00,VWS V14.01,2013-05-26 14:27:00,
2013-05-26 07:32:00,43.3,12.4,29.94,SSW,199,0.0,0.0,28,0.00,,,0.00,VWS V14.01,2013-05-26 14:32:00,
2013-05-26 07:38:00,43.0,12.1,29.94,SSW,199,0.0,0.0,28,0.00,,,0.00,VWS V14.01,2013-05-26 14:38:00,
2013-05-26 07:44:00,43.0,12.1,29.94,SSW,199,0.0,0.0,28,0.00,,,0.00,VWS V14.01,2013-05-26 14:44:00,
2013-05-26 07:50:00,43.0,12.1,29.94,SSW,199,0.0,0.0,28,0.00,,,0.00,VWS V14.01,2013-05-26 14:50:00,
2013-05-26 07:55:00,43.2,12.3,29.94,SSW,199,0.0,0.0,28,0.00,,,0.00,VWS V14.01,2013-05-26 14:55:00,
2013-05-26 08:00:00,43.3,12.4,29.94,SSW,199,0.0,0.0,28,0.00,,,0.00,VWS V14.01,2013-05-26 15:00:00,
2013-05-26 08:05:00,43.7,12.8,29.94,SSW,199,0.0,0.0,28,0.00,,,0.00,VWS V14.01,2013-05-26 15:05:00,
2013-05-26 08:10:00,43.7,12.8,29.94,SSW,199,0.0,0.0,28,0.00,,,0.00,VWS V14.01,2013-05-26 15:10:00,
2013-05-26 08:16:00,43.7,12.8,29.94,SSW,199,0.0,0.0,28,0.00,,,0.00,VWS V14.01,2013-05-26 15:16:00,
2013-05-26 08:21:00,43.7,12.8,29.94,SSW,199,0.0,0.0,28,0.00,,,0.00,VWS V14.01,2013-05-26 15:21:00,
2013-05-26 08:26:00,43.7,12.8,29.94,SSW,199,0.0,0.0,28,0.00,,,0.00,VWS V14.01,2013-05-26 15:26:00,
2013-05-26 08:31:00,43.7,13.5,29.94,SSW,199,0.0,0.0,29,0.00,,,0.00,VWS V14.01,2013-05-26 15:31:00,
2013-05-26 08:36:00,43.9,12.9,29.94,SSW,199,0.0,0.0,28,0.00,,,0.00,VWS V14.01,2013-05-26 15:36:00,
2013-05-26 08:42:00,44.2,13.2,29.94,SSW,199,0.0,0.0,28,0.00,,,0.00,VWS V14.01,2013-05-26 15:42:00,
2013-05-26 08:48:00,44.4,13.4,29.94,SSW,199,0.0,0.0,28,0.00,,,0.00,VWS V14.01,2013-05-26 15:48:00,
2013-05-26 08:53:00,44.6,13.5,29.94,SSW,199,0.0,0.0,28,0.00,,,0.00,VWS V14.01,2013-05-26 15:53:00,
2013-05-26 08:59:00,44.8,13.7,29.94,SSW,199,0.0,0.0,28,0.00,,,0.00,VWS V14.01,2013-05-26 15:59:00,
2013-05-26 09:04:00,45.1,14.0,29.94,SSW,199,0.0,0.0,28,0.00,,,0.00,VWS V14.01,2013-05-26 16:04:00,
2013-05-26 09:09:00,45.3,14.1,29.94,SSW,199,2.7,2.7,28,0.00,,,0.00,VWS V14.01,2013-05-26 16:09:00,
2013-05-26 09:14:00,45.7,14.5,29.94,SSW,199,2.7,2.7,28,0.00,,,0.00,VWS V14.01,2013-05-26 16:14:00,
2013-05-26 09:21:00,46.0,14.8,29.94,SSW,199,0.0,0.0,28,0.00,,,0.00,VWS V14.01,2013-05-26 16:21:00,
2013-05-26 09:26:00,46.2,14.9,29.94,SSW,199,0.0,0.0,28,0.00,,,0.00,VWS V14.01,2013-05-26 16:26:00,
2013-05-26 09:32:00,46.2,14.9,29.94,SSW,199,0.0,0.0,28,0.00,,,0.00,VWS V14.01,2013-05-26 16:32:00,
2013-05-26 09:37:00,46.2,14.9,29.94,SSW,199,0.0,0.0,28,0.00,,,0.00,VWS V14.01,2013-05-26 16:37:00,
2013-05-26 09:43:00,46.2,14.9,29.94,SSW,199,0.0,0.0,28,0.00,,,0.00,VWS V14.01,2013-05-26 16:43:00,
2013-05-26 09:48:00,46.4,14.2,29.94,SSW,199,0.0,0.0,27,0.00,,,0.00,VWS V14.01,2013-05-26 16:48:00,
2013-05-26 09:54:00,46.2,14.9,29.94,SSW,199,0.0,0.0,28,0.00,,,0.00,VWS V14.01,2013-05-26 16:54:00,
2013-05-26 09:59:00,46.4,14.2,29.94,SSW,199,0.0,0.0,27,0.00,,,0.00,VWS V14.01,2013-05-26 16:59:00,
2013-05-26 10:06:00,46.2,14.9,29.94,SSW,199,0.0,0.0,28,0.00,,,0.00,VWS V14.01,2013-05-26 17:06:00,
2013-05-26 10:11:00,46.0,14.8,29.94,SSW,199,0.0,0.0,28,0.00,,,0.00,VWS V14.01,2013-05-26 17:11:00,
2013-05-26 10:16:00,46.2,14.9,29.94,SSW,199,0.0,0.0,28,0.00,,,0.00,VWS V14.01,2013-05-26 17:16:00,
2013-05-26 10:22:00,46.6,14.4,29.94,SSW,199,0.0,0.0,27,0.00,,,0.00,VWS V14.01,2013-05-26 17:22:00,
2013-05-26 10:27:00,46.6,14.4,29.94,SSW,199,0.0,0.0,27,0.00,,,0.00,VWS V14.01,2013-05-26 17:27:00,
2013-05-26 10:33:00,46.9,14.7,29.94,SSW,199,0.0,0.0,27,0.00,,,0.00,VWS V14.01,2013-05-26 17:33:00,
2013-05-26 10:38:00,47.1,14.9,29.94,SSW,199,0.0,0.0,27,0.00,,,0.00,VWS V14.01,2013-05-26 17:38:00,
2013-05-26 10:44:00,47.3,15.0,29.94,SSW,199,0.0,0.0,27,0.00,,,0.00,VWS V14.01,2013-05-26 17:44:00,
2013-05-26 10:49:00,47.5,15.2,29.94,SSW,199,0.0,0.0,27,0.00,,,0.00,VWS V14.01,2013-05-26 17:49:00,
2013-05-26 10:56:00,47.7,15.3,29.94,SSW,199,0.0,0.0,27,0.00,,,0.00,VWS V14.01,2013-05-26 17:56:00,
2013-05-26 11:01:00,47.8,15.5,29.94,SSW,199,0.0,0.0,27,0.00,,,0.00,VWS V14.01,2013-05-26 18:01:00,
2013-05-26 11:07:00,48.0,15.6,29.91,SSW,199,0.0,0.0,27,0.00,,,0.00,VWS V14.01,2013-05-26 18:07:00,
2013-05-26 11:13:00,48.4,16.0,29.91,SSW,199,0.0,0.0,27,0.00,,,0.00,VWS V14.01,2013-05-26 18:13:00,
2013-05-26 11:18:00,48.6,16.1,29.91,SSW,199,0.0,0.0,27,0.00,,,0.00,VWS V14.01,2013-05-26 18:18:00,
2013-05-26 11:25:00,48.9,16.4,29.94,SSW,199,0.0,0.0,27,0.00,,,0.00,VWS V14.01,2013-05-26 18:25:00,
2013-05-26 11:30:00,49.3,16.7,29.94,SSW,199,0.0,0.0,27,0.00,,,0.00,VWS V14.01,2013-05-26 18:30:00,
2013-05-26 11:36:00,49.3,16.7,29.94,SSW,199,0.0,0.0,27,0.00,,,0.00,VWS V14.01,2013-05-26 18:36:00,
2013-05-26 11:41:00,49.5,16.9,29.91,SSW,199,0.0,0.0,27,0.00,,,0.00,VWS V14.01,2013-05-26 18:41:00,
2013-05-26 11:47:00,49.8,17.2,29.91,SSW,199,0.0,0.0,27,0.00,,,0.00,VWS V14.01,2013-05-26 18:47:00,
2013-05-26 11:52:00,50.2,17.5,29.91,SSW,199,0.0,0.0,27,0.00,,,0.00,VWS V14.01,2013-05-26 18:52:00,
2013-05-26 11:58:00,50.5,17.8,29.91,SSW,199,0.0,0.0,27,0.00,,,0.00,VWS V14.01,2013-05-26 18:58:00,
2013-05-26 12:03:00,50.2,17.5,29.91,South,185,3.1,3.1,27,0.00,,,0.00,VWS V14.01,2013-05-26 19:03:00,
2013-05-26 12:08:00,50.0,17.4,29.91,South,185,2.7,2.7,27,0.00,,,0.00,VWS V14.01,2013-05-26 19:08:00,
2013-05-26 12:14:00,50.4,17.7,29.91,South,184,0.0,0.0,27,0.00,,,0.00,VWS V14.01,2013-05-26 19:14:00,
2013-05-26 12:20:00,50.9,18.1,29.91,South,184,0.0,0.0,27,0.00,,,0.00,VWS V14.01,2013-05-26 19:20:00,
2013-05-26 12:26:00,51.8,18.9,29.91,South,184,0.0,0.0,27,0.00,,,0.00,VWS V14.01,2013-05-26 19:26:00,
2013-05-26 12:31:00,51.4,18.6,29.91,South,176,2.7,2.7,27,0.00,,,0.00,VWS V14.01,2013-05-26 19:31:00,
2013-05-26 12:37:00,51.8,18.9,29.91,South,176,0.0,0.0,27,0.00,,,0.00,VWS V14.01,2013-05-26 19:37:00,
2013-05-26 12:42:00,52.0,19.1,29.91,South,176,0.0,0.0,27,0.00,,,0.00,VWS V14.01,2013-05-26 19:42:00,
2013-05-26 12:47:00,52.0,19.1,29.91,South,176,0.0,0.0,27,0.00,,,0.00,VWS V14.01,2013-05-26 19:47:00,
2013-05-26 12:53:00,52.3,19.4,29.91,South,177,0.0,0.0,27,0.00,,,0.00,VWS V14.01,2013-05-26 19:53:00,
2013-05-26 12:59:00,52.2,19.2,29.91,SSW,205,4.5,4.5,27,0.00,,,0.00,VWS V14.01,2013-05-26 19:59:00,
2013-05-26 13:05:00,52.5,19.5,29.91,NE,35,5.4,5.4,27,0.00,,,0.00,VWS V14.01,2013-05-26 20:05:00,
2013-05-26 13:10:00,53.1,20.0,29.91,SW,219,5.4,5.8,27,0.00,,,0.00,VWS V14.01,2013-05-26 20:10:00,
2013-05-26 13:16:00,53.6,19.6,29.91,SW,226,7.6,7.6,26,0.00,,,0.00,VWS V14.01,2013-05-26 20:16:00,
2013-05-26 13:21:00,54.1,20.0,29.91,North,2,5.4,6.3,26,0.00,,,0.00,VWS V14.01,2013-05-26 20:21:00,
2013-05-26 13:26:00,54.3,20.2,29.91,South,180,6.7,7.6,26,0.00,,,0.00,VWS V14.01,2013-05-26 20:26:00,
2013-05-26 13:32:00,54.3,20.2,29.91,SW,221,6.3,8.7,26,0.00,,,0.00,VWS V14.01,2013-05-26 20:32:00,
2013-05-26 13:37:00,54.3,20.2,29.91,NNE,21,6.7,8.1,26,0.00,,,0.00,VWS V14.01,2013-05-26 20:37:00,
2013-05-26 13:43:00,54.3,20.2,29.91,SSE,166,8.3,8.3,26,0.00,,,0.00,VWS V14.01,2013-05-26 20:43:00,
2013-05-26 13:49:00,54.5,20.3,29.91,NNE,17,8.1,8.3,26,0.00,,,0.00,VWS V14.01,2013-05-26 20:49:00,
2013-05-26 13:54:00,54.1,20.0,29.91,North,4,8.1,8.7,26,0.00,,,0.00,VWS V14.01,2013-05-26 20:54:00,
2013-05-26 13:59:00,54.0,19.9,29.91,SW,229,8.3,10.1,26,0.00,,,0.00,VWS V14.01,2013-05-26 20:59:00,
2013-05-26 14:05:00,54.1,20.0,29.91,SW,219,8.7,8.7,26,0.00,,,0.00,VWS V14.01,2013-05-26 21:05:00,
2013-05-26 14:10:00,54.3,20.2,29.91,SW,230,8.7,8.7,26,0.00,,,0.00,VWS V14.01,2013-05-26 21:10:00,
2013-05-26 14:15:00,54.7,20.5,29.91,North,4,8.3,10.1,26,0.00,,,0.00,VWS V14.01,2013-05-26 21:15:00,
2013-05-26 14:20:00,55.0,20.8,29.91,North,5,8.7,10.5,26,0.00,,,0.00,VWS V14.01,2013-05-26 21:20:00,
2013-05-26 14:25:00,55.0,20.8,29.91,SW,219,8.1,8.7,26,0.00,,,0.00,VWS V14.01,2013-05-26 21:25:00,
2013-05-26 14:30:00,55.0,20.8,29.91,SSW,212,8.3,8.3,26,0.00,,,0.00,VWS V14.01,2013-05-26 21:30:00,
2013-05-26 14:35:00,55.2,21.0,29.91,SE,130,8.1,8.1,26,0.00,,,0.00,VWS V14.01,2013-05-26 21:35:00,
2013-05-26 14:41:00,55.2,21.0,29.91,North,4,7.6,8.3,26,0.00,,,0.00,VWS V14.01,2013-05-26 21:41:00,
2013-05-26 14:46:00,55.4,21.1,29.91,SSW,206,5.4,6.3,26,0.00,,,0.00,VWS V14.01,2013-05-26 21:46:00,
2013-05-26 14:51:00,55.4,21.1,29.91,SW,226,5.4,8.7,26,0.00,,,0.00,VWS V14.01,2013-05-26 21:51:00,
2013-05-26 14:56:00,55.2,21.0,29.91,North,5,8.1,8.1,26,0.00,,,0.00,VWS V14.01,2013-05-26 21:56:00,
2013-05-26 15:01:00,54.0,19.9,29.91,SSE,166,8.1,8.1,26,0.00,,,0.00,VWS V14.01,2013-05-26 22:01:00,
2013-05-26 15:07:00,53.1,20.0,29.91,NNE,12,5.8,8.7,27,0.00,,,0.00,VWS V14.01,2013-05-26 22:07:00,
2013-05-26 15:13:00,53.1,20.0,29.91,SW,227,8.1,8.1,27,0.00,,,0.00,VWS V14.01,2013-05-26 22:13:00,
2013-05-26 15:18:00,53.2,20.1,29.91,North,5,5.4,6.3,27,0.00,,,0.00,VWS V14.01,2013-05-26 22:18:00,
2013-05-26 15:24:00,54.0,19.9,29.91,WSW,246,6.7,6.7,26,0.00,,,0.00,VWS V14.01,2013-05-26 22:24:00,
2013-05-26 15:29:00,54.3,20.2,29.91,WSW,251,6.3,6.3,26,0.00,,,0.00,VWS V14.01,2013-05-26 22:29:00,
2013-05-26 15:35:00,54.7,20.5,29.91,SSE,165,4.0,4.0,26,0.00,,,0.00,VWS V14.01,2013-05-26 22:35:00,
2013-05-26 15:40:00,55.0,20.8,29.91,SE,129,2.7,4.0,26,0.00,,,0.00,VWS V14.01,2013-05-26 22:40:00,
2013-05-26 15:46:00,55.6,21.3,29.91,SW,235,0.0,2.7,26,0.00,,,0.00,VWS V14.01,2013-05-26 22:46:00,
2013-05-26 15:51:00,56.3,21.0,29.91,NE,51,4.9,6.3,25,0.00,,,0.00,VWS V14.01,2013-05-26 22:51:00,
2013-05-26 15:56:00,56.1,20.8,29.91,ESE,103,3.6,4.0,25,0.00,,,0.00,VWS V14.01,2013-05-26 22:56:00,
2013-05-26 16:03:00,55.9,20.6,29.91,WSW,249,5.4,6.3,25,0.00,,,0.00,VWS V14.01,2013-05-26 23:03:00,
2013-05-26 16:08:00,57.2,21.7,29.91,SW,227,6.3,6.3,25,0.00,,,0.00,VWS V14.01,2013-05-26 23:08:00,
2013-05-26 16:14:00,57.0,21.6,29.91,SW,224,6.3,6.3,25,0.00,,,0.00,VWS V14.01,2013-05-26 23:14:00,
2013-05-26 16:19:00,57.2,21.7,29.91,SW,227,5.4,5.4,25,0.00,,,0.00,VWS V14.01,2013-05-26 23:19:00,
2013-05-26 16:25:00,57.2,21.7,29.91,SW,235,2.7,4.0,25,0.00,,,0.00,VWS V14.01,2013-05-26 23:25:00,
2013-05-26 16:30:00,56.7,21.3,29.91,SW,229,4.0,5.4,25,0.00,,,0.00,VWS V14.01,2013-05-26 23:30:00,
2013-05-26 16:36:00,56.8,21.4,29.91,SW,230,6.3,6.3,25,0.00,,,0.00,VWS V14.01,2013-05-26 23:36:00,
2013-05-26 16:42:00,58.1,22.5,29.91,SSW,197,6.3,6.3,25,0.00,,,0.00,VWS V14.01,2013-05-26 23:42:00,
2013-05-26 16:47:00,58.1,22.5,29.91,North,4,6.3,6.3,25,0.00,,,0.00,VWS V14.01,2013-05-26 23:47:00,
2013-05-26 16:53:00,57.7,22.2,29.91,North,4,6.7,6.7,25,0.00,,,0.00,VWS V14.01,2013-05-26 23:53:00,
2013-05-26 16:58:00,57.9,22.3,29.91,NNE,21,7.6,7.6,25,0.00,,,0.00,VWS V14.01,2013-05-26 23:58:00,
2013-05-26 17:04:00,58.1,22.5,29.91,SSE,162,6.3,6.3,25,0.00,,,0.00,VWS V14.01,2013-05-27 00:04:00,
2013-05-26 17:09:00,58.8,23.1,29.91,North,5,7.6,7.6,25,0.00,,,0.00,VWS V14.01,2013-05-27 00:09:00,
2013-05-26 17:15:00,58.5,22.8,29.91,SW,220,7.6,7.6,25,0.00,,,0.00,VWS V14.01,2013-05-27 00:15:00,
2013-05-26 17:20:00,58.8,23.1,29.91,North,5,8.3,8.3,25,0.00,,,0.00,VWS V14.01,2013-05-27 00:20:00,
2013-05-26 17:25:00,59.0,22.3,29.91,SSW,212,8.1,8.7,24,0.00,,,0.00,VWS V14.01,2013-05-27 00:25:00,
2013-05-26 17:31:00,58.8,23.1,29.91,North,5,6.3,8.1,25,0.00,,,0.00,VWS V14.01,2013-05-27 00:31:00,
2013-05-26 17:36:00,58.3,22.6,29.91,SW,215,21.0,21.0,25,0.00,,,0.00,VWS V14.01,2013-05-27 00:36:00,
2013-05-26 17:41:00,58.5,22.8,29.91,SW,215,8.1,8.1,25,0.00,,,0.00,VWS V14.01,2013-05-27 00:41:00,
2013-05-26 17:47:00,58.5,22.8,29.91,SW,229,4.0,8.7,25,0.00,,,0.00,VWS V14.01,2013-05-27 00:47:00,
2013-05-26 17:52:00,58.3,22.6,29.91,WSW,245,11.0,11.0,25,0.00,,,0.00,VWS V14.01,2013-05-27 00:52:00,
2013-05-26 17:58:00,58.1,22.5,29.91,NNE,25,12.3,12.3,25,0.00,,,0.00,VWS V14.01,2013-05-27 00:58:00,
2013-05-26 18:03:00,57.9,22.3,29.91,WSW,244,12.8,12.8,25,0.00,,,0.00,VWS V14.01,2013-05-27 01:03:00,
2013-05-26 18:09:00,57.7,22.2,29.91,WSW,243,8.1,8.1,25,0.00,,,0.00,VWS V14.01,2013-05-27 01:09:00,
2013-05-26 18:15:00,57.4,21.9,29.91,SSW,209,6.3,7.6,25,0.00,,,0.00,VWS V14.01,2013-05-27 01:15:00,
2013-05-26 18:20:00,57.4,21.9,29.91,West,271,4.0,7.6,25,0.00,,,0.00,VWS V14.01,2013-05-27 01:20:00,
2013-05-26 18:25:00,57.4,21.9,29.91,SW,218,8.1,8.1,25,0.00,,,0.00,VWS V14.01,2013-05-27 01:25:00,
2013-05-26 18:31:00,57.4,21.9,29.91,WSW,249,11.0,11.0,25,0.00,,,0.00,VWS V14.01,2013-05-27 01:31:00,
2013-05-26 18:36:00,57.4,21.9,29.91,SW,223,10.1,10.1,25,0.00,,,0.00,VWS V14.01,2013-05-27 01:36:00,
2013-05-26 18:41:00,57.2,21.7,29.91,SW,216,4.0,5.4,25,0.00,,,0.00,VWS V14.01,2013-05-27 01:41:00,
2013-05-26 18:46:00,56.8,21.4,29.91,SSW,205,8.7,10.1,25,0.00,,,0.00,VWS V14.01,2013-05-27 01:46:00,
2013-05-26 18:51:00,56.8,21.4,29.91,NNE,12,12.3,13.2,25,0.00,,,0.00,VWS V14.01,2013-05-27 01:51:00,
2013-05-26 18:57:00,56.8,21.4,29.91,SW,214,8.1,11.0,25,0.00,,,0.00,VWS V14.01,2013-05-27 01:57:00,
2013-05-26 19:03:00,57.0,21.6,29.91,WSW,242,12.3,12.3,25,0.00,,,0.00,VWS V14.01,2013-05-27 02:03:00,
2013-05-26 19:08:00,57.0,21.6,29.91,SW,217,13.2,13.2,25,0.00,,,0.00,VWS V14.01,2013-05-27 02:08:00,
2013-05-26 19:14:00,57.0,21.6,29.91,WNW,290,15.0,15.0,25,0.00,,,0.00,VWS V14.01,2013-05-27 02:14:00,
2013-05-26 19:19:00,56.8,21.4,29.91,WSW,252,11.9,13.6,25,0.00,,,0.00,VWS V14.01,2013-05-27 02:19:00,
2013-05-26 19:25:00,56.8,21.4,29.91,North,7,14.5,14.5,25,0.00,,,0.00,VWS V14.01,2013-05-27 02:25:00,
2013-05-26 19:31:00,56.7,21.3,29.91,WSW,243,11.0,11.0,25,0.00,,,0.00,VWS V14.01,2013-05-27 02:31:00,
2013-05-26 19:36:00,56.3,21.0,29.91,SW,234,8.7,11.9,25,0.00,,,0.00,VWS V14.01,2013-05-27 02:36:00,
2013-05-26 19:42:00,56.1,20.8,29.91,WSW,241,5.8,12.3,25,0.00,,,0.00,VWS V14.01,2013-05-27 02:42:00,
2013-05-26 19:47:00,55.4,20.2,29.91,North,7,8.3,8.3,25,0.00,,,0.00,VWS V14.01,2013-05-27 02:47:00,
2013-05-26 19:53:00,55.6,20.3,29.91,WSW,253,13.2,13.2,25,0.00,,,0.00,VWS V14.01,2013-05-27 02:53:00,
2013-05-26 19:59:00,55.8,20.5,29.91,SW,218,10.1,11.0,25,0.00,,,0.00,VWS V14.01,2013-05-27 02:59:00,
2013-05-26 20:04:00,55.0,20.8,29.91,SSW,207,8.1,8.1,26,0.00,,,0.00,VWS V14.01,2013-05-27 03:04:00,
2013-05-26 20:10:00,54.7,20.5,29.91,SSW,208,8.7,8.7,26,0.00,,,0.00,VWS V14.01,2013-05-27 03:10:00,
2013-05-26 20:16:00,54.5,20.3,29.91,East,85,5.8,10.5,26,0.00,,,0.00,VWS V14.01,2013-05-27 03:16:00,
2013-05-26 20:21:00,53.8,19.7,29.91,WSW,258,4.0,5.4,26,0.00,,,0.00,VWS V14.01,2013-05-27 03:21:00,
2013-05-26 20:26:00,53.2,19.3,29.91,WSW,244,2.7,13.6,26,0.00,,,0.00,VWS V14.01,2013-05-27 03:26:00,
2013-05-26 20:32:00,53.2,19.3,29.91,WSW,258,14.5,14.5,26,0.00,,,0.00,VWS V14.01,2013-05-27 03:32:00,
2013-05-26 20:38:00,53.2,19.3,29.91,SE,130,9.2,9.2,26,0.00,,,0.00,VWS V14.01,2013-05-27 03:38:00,
2013-05-26 20:43:00,53.2,19.3,29.91,WNW,302,3.6,8.3,26,0.00,,,0.00,VWS V14.01,2013-05-27 03:43:00,
2013-05-26 20:49:00,53.1,19.1,29.91,North,5,3.6,5.8,26,0.00,,,0.00,VWS V14.01,2013-05-27 03:49:00,
2013-05-26 20:54:00,53.1,19.1,29.91,North,353,0.0,4.0,26,0.00,,,0.00,VWS V14.01,2013-05-27 03:54:00,
2013-05-26 20:59:00,53.1,19.1,29.91,WSW,241,3.6,4.0,26,0.00,,,0.00,VWS V14.01,2013-05-27 03:59:00,
2013-05-26 21:01:00,53.1,19.1,29.91,North,3,0.0,3.6,26,0.00,,,0.00,VWS V14.01,2013-05-27 04:01:00,
2013-05-26 21:03:00,52.9,19.0,29.91,NW,305,3.1,3.1,26,0.00,,,0.00,VWS V14.01,2013-05-27 04:03:00,
2013-05-26 21:06:00,52.9,19.0,29.91,WSW,250,4.0,8.1,26,0.00,,,0.00,VWS V14.01,2013-05-27 04:06:00,
2013-05-26 21:08:00,52.9,19.0,29.91,SE,141,3.6,3.6,26,0.00,,,0.00,VWS V14.01,2013-05-27 04:08:00,
2013-05-26 21:14:00,52.7,18.8,29.91,WSW,248,8.1,8.7,26,0.00,,,0.00,VWS V14.01,2013-05-27 04:14:00,
2013-05-26 21:20:00,52.5,18.6,29.91,NW,304,4.0,5.8,26,0.00,,,0.00,VWS V14.01,2013-05-27 04:20:00,
2013-05-26 21:25:00,52.7,18.8,29.91,SW,222,6.3,6.3,26,0.00,,,0.00,VWS V14.01,2013-05-27 04:25:00,
2013-05-26 21:29:00,52.5,18.6,29.91,West,272,2.7,4.0,26,0.00,,,0.00,VWS V14.01,2013-05-27 04:29:00,
2013-05-26 21:35:00,52.2,18.3,29.91,SW,219,5.8,5.8,26,0.00,,,0.00,VWS V14.01,2013-05-27 04:35:00,
2013-05-26 21:41:00,51.6,18.8,29.91,West,273,4.0,4.9,27,0.00,,,0.00,VWS V14.01,2013-05-27 04:41:00,
2013-05-26 21:46:00,51.3,18.4,29.91,NW,304,0.0,2.7,27,0.00,,,0.00,VWS V14.01,2013-05-27 04:46:00,
2013-05-26 21:52:00,51.4,18.6,29.91,WNW,288,2.2,6.3,27,0.00,,,0.00,VWS V14.01,2013-05-27 04:52:00,
2013-05-26 21:57:00,51.4,18.6,29.91,NNW,343,2.7,5.4,27,0.00,,,0.00,VWS V14.01,2013-05-27 04:57:00,
2013-05-26 22:02:00,51.4,18.6,29.91,West,259,0.0,0.0,27,0.00,,,0.00,VWS V14.01,2013-05-27 05:02:00,
2013-05-26 22:07:00,51.6,18.8,29.91,WSW,251,4.0,8.1,27,0.00,,,0.00,VWS V14.01,2013-05-27 05:07:00,
2013-05-26 22:12:00,51.6,18.8,29.91,North,4,2.2,3.1,27,0.00,,,0.00,VWS V14.01,2013-05-27 05:12:00,
2013-05-26 22:17:00,51.6,18.8,29.91,WNW,285,3.6,3.6,27,0.00,,,0.00,VWS V14.01,2013-05-27 05:17:00,
2013-05-26 22:23:00,51.4,18.6,29.91,NNW,336,0.0,0.0,27,0.00,,,0.00,VWS V14.01,2013-05-27 05:23:00,
2013-05-26 22:28:00,51.3,18.4,29.91,NW,313,2.2,2.2,27,0.00,,,0.00,VWS V14.01,2013-05-27 05:28:00,
2013-05-26 22:33:00,51.1,18.3,29.91,West,262,8.1,8.1,27,0.00,,,0.00,VWS V14.01,2013-05-27 05:33:00,
2013-05-26 22:38:00,51.1,18.3,29.91,WSW,250,6.3,6.3,27,0.00,,,0.00,VWS V14.01,2013-05-27 05:38:00,
2013-05-26 22:43:00,51.1,18.3,29.91,WSW,250,6.3,6.7,27,0.00,,,0.00,VWS V14.01,2013-05-27 05:43:00,
2013-05-26 22:49:00,51.1,18.3,29.91,SW,221,2.7,4.0,27,0.00,,,0.00,VWS V14.01,2013-05-27 05:49:00,
2013-05-26 22:54:00,51.1,18.3,29.91,WSW,248,3.1,3.1,27,0.00,,,0.00,VWS V14.01,2013-05-27 05:54:00,
2013-05-26 22:59:00,50.9,18.1,29.91,WSW,254,0.0,5.8,27,0.00,,,0.00,VWS V14.01,2013-05-27 05:59:00,
2013-05-26 23:04:00,50.7,18.0,29.91,WNW,283,3.1,5.8,27,0.00,,,0.00,VWS V14.01,2013-05-27 06:04:00,
2013-05-26 23:10:00,50.5,17.8,29.91,WSW,254,2.2,4.9,27,0.00,,,0.00,VWS V14.01,2013-05-27 06:10:00,
2013-05-26 23:16:00,50.5,17.8,29.91,WSW,251,0.0,5.4,27,0.00,,,0.00,VWS V14.01,2013-05-27 06:16:00,
2013-05-26 23:21:00,50.2,17.5,29.91,SW,232,4.0,4.0,27,0.00,,,0.00,VWS V14.01,2013-05-27 06:21:00,
2013-05-26 23:27:00,50.0,17.4,29.91,SSW,208,0.0,0.0,27,0.00,,,0.00,VWS V14.01,2013-05-27 06:27:00,
2013-05-26 23:32:00,49.6,17.0,29.91,NW,315,0.0,0.0,27,0.00,,,0.00,VWS V14.01,2013-05-27 06:32:00,
2013-05-26 23:37:00,49.1,16.6,29.91,NNW,334,0.0,0.0,27,0.00,,,0.00,VWS V14.01,2013-05-27 06:37:00,
2013-05-26 23:42:00,49.1,16.6,29.91,SW,221,0.0,0.0,27,0.00,,,0.00,VWS V14.01,2013-05-27 06:42:00,
2013-05-26 23:48:00,48.7,16.3,29.91,NW,325,0.0,0.0,27,0.00,,,0.00,VWS V14.01,2013-05-27 06:48:00,
2013-05-26 23:53:00,48.4,16.0,29.91,NNW,340,0.0,0.0,27,0.00,,,0.00,VWS V14.01,2013-05-27 06:53:00,
2013-05-26 23:59:00,48.4,16.0,29.91,NNE,28,2.2,2.2,27,0.00,,,0.00,VWS V14.01,2013-05-27 06:59:00,